Baltimore, MD

5:32 PM EDT on October 21, 2017 (GMT -0400)
Baltimore-Washington International

Weather History for KBWI - April, 2014

Change the Weather History Date:

Tuesday, April 8, 2014

  Actual Average Record
Temperature  
Mean Temperature 58 °F 51 °F  
Max Temperature 64 °F 62 °F 91 °F (1929)
Min Temperature 51 °F 41 °F 26 °F (1982)
Degree Days  
Heating Degree Days 7 14  
Month to date heating degree days 113 121  
Since 1 July heating degree days 4683 4382  
Cooling Degree Days 0 0  
Month to date cooling degree days 0 0  
Year to date cooling degree days 0 1  
Growing Degree Days 6 (Base 50)    
Moisture  
Dew Point 47 °F    
Average Humidity 69    
Maximum Humidity 100    
Minimum Humidity 37    
Precipitation  
Precipitation 0.07 in 0.11 in 2.44 in (1935)
Month to date precipitation 0.67 0.93  
Year to date precipitation 12.34 10.78  
Snow  
Snow 0.00 in 0.00 in 4.00 in (1916)
Month to date snowfall 0.0 0.0  
Since 1 July snowfall 39.0 20.1  
Snow Depth 0.00 in    
Sea Level Pressure  
Sea Level Pressure 29.56 in    
Wind  
Wind Speed 10 mph (WSW)    
Max Wind Speed 28 mph    
Max Gust Speed 37 mph    
Visibility 6 miles    
Events Rain    
T = Trace of Precipitation, MM = Missing Value Source: NWS Daily Summary

Daily Weather History Graph

Daily Weather History Graph

Search for Another Location

Airport or City:

Trip Planner

Search our weather history database for the weather conditions in past years. The results will help you decide how hot, cold, wet, or windy it might be!

Date:

Astronomy

Apr. 08, 2014 Rise Set
Actual Time 6:40 AM EDT 7:37 PM EDT
Civil Twilight 6:13 AM EDT 8:04 PM EDT
Nautical Twilight 5:40 AM EDT 8:37 PM EDT
Astronomical Twilight 5:07 AM EDT 9:10 PM EDT
Moon 1:31 PM EDT (4/8) 2:49 AM EDT (4/8)
Length of Visible Light 13h 51m
Length of Day
12h 56m
Waxing Gibbous, 62% of the Moon is Illuminated
Apr 8
Waxing Gibbous
Apr 15
Full
Apr 22
Last Quarter
Apr 29
New
May 6
First Quarter

Hourly Weather History & Observations

Time (EDT) Temp. Windchill Dew Point Humidity Pressure Visibility Wind Dir Wind Speed Gust Speed Precip Events Conditions
12:40 AM 53.6 °F - 51.8 °F 94% 29.61 in 10.0 mi SSW 4.6 mph - N/A   Overcast
12:54 AM 53.1 °F - 52.0 °F 96% 29.60 in 10.0 mi South 4.6 mph - N/A   Overcast
1:00 AM 53.6 °F - 51.8 °F 94% 29.60 in 10.0 mi Variable 4.6 mph - N/A   Overcast
1:13 AM 53.6 °F - 51.8 °F 94% 29.60 in 10.0 mi South 5.8 mph - N/A   Overcast
1:54 AM 53.1 °F - 51.1 °F 93% 29.58 in 10.0 mi SSW 5.8 mph - N/A   Overcast
2:17 AM 53.6 °F - 51.8 °F 94% 29.57 in 2.5 mi SSW 5.8 mph - 0.02 in Rain Light Rain
2:25 AM 51.8 °F - 51.8 °F 100% 29.57 in 3.0 mi SW 4.6 mph - 0.02 in Rain Light Rain
2:46 AM 51.8 °F - 51.8 °F 100% 29.56 in 2.5 mi WSW 4.6 mph - 0.03 in Rain Light Rain
2:50 AM 51.8 °F - 51.8 °F 100% 29.56 in 1.8 mi WSW 4.6 mph - 0.04 in Rain Light Rain
2:54 AM 52.0 °F - 51.1 °F 97% 29.56 in 1.8 mi SSW 3.5 mph - 0.05 in Rain Rain
2:57 AM 51.8 °F - 51.8 °F 100% 29.56 in 2.0 mi SSW 3.5 mph - 0.01 in Rain Light Rain
3:05 AM 51.8 °F - 51.8 °F 100% 29.55 in 4.0 mi SSW 3.5 mph - 0.01 in Rain Light Rain
3:25 AM 51.8 °F - 51.8 °F 100% 29.53 in 2.0 mi South 4.6 mph - 0.01 in   Light Drizzle
3:35 AM 51.8 °F - 51.8 °F 100% 29.52 in 3.0 mi Calm Calm - 0.01 in   Light Drizzle
3:54 AM 52.0 °F - 51.1 °F 97% 29.52 in 4.0 mi SSW 3.5 mph - 0.02 in   Overcast
3:59 AM 51.8 °F - 51.8 °F 100% 29.52 in 3.0 mi SSW 3.5 mph - N/A   Overcast
4:54 AM 52.0 °F - 51.1 °F 97% 29.49 in 3.0 mi Calm Calm - 0.00 in   Overcast
5:23 AM 51.8 °F - 51.8 °F 100% 29.47 in 2.5 mi South 3.5 mph - N/A   Overcast
5:54 AM 52.0 °F - 51.1 °F 97% 29.48 in 2.5 mi SW 5.8 mph - N/A   Overcast
6:17 AM 51.8 °F - 51.8 °F 100% 29.47 in 1.8 mi SW 4.6 mph - N/A   Overcast
6:54 AM 53.1 °F - 53.1 °F 100% 29.46 in 1.0 mi SW 10.4 mph - N/A   Overcast
7:54 AM 53.6 °F - 53.6 °F 100% 29.49 in 1.5 mi WSW 12.7 mph - N/A   Light Drizzle
7:56 AM 53.6 °F - 53.6 °F 100% 29.49 in 1.5 mi WSW 12.7 mph 19.6 mph 0.00 in   Light Drizzle
8:34 AM 53.6 °F - 53.6 °F 100% 29.50 in 2.0 mi WSW 5.8 mph - 0.00 in   Light Drizzle
8:44 AM 53.6 °F - 53.6 °F 100% 29.49 in 3.0 mi WSW 8.1 mph - 0.00 in   Overcast
8:54 AM 55.0 °F - 53.1 °F 93% 29.50 in 3.0 mi West 6.9 mph - 0.00 in   Overcast
9:54 AM 55.0 °F - 53.1 °F 93% 29.52 in 6.0 mi West 12.7 mph - N/A   Overcast
10:08 AM 55.4 °F - 51.8 °F 88% 29.53 in 8.0 mi West 13.8 mph - N/A   Mostly Cloudy
10:32 AM 55.4 °F - 51.8 °F 88% 29.53 in 10.0 mi West 12.7 mph - N/A   Mostly Cloudy
10:41 AM 57.2 °F - 51.8 °F 82% 29.53 in 10.0 mi West 13.8 mph - N/A   Mostly Cloudy
10:54 AM 57.9 °F - 50.0 °F 75% 29.53 in 10.0 mi West 16.1 mph 19.6 mph N/A   Mostly Cloudy
11:54 AM 60.1 °F - 43.0 °F 53% 29.53 in 10.0 mi WNW 26.5 mph 36.8 mph N/A   Mostly Cloudy
12:54 PM 63.0 °F - 41.0 °F 45% 29.54 in 10.0 mi West 23.0 mph 28.8 mph N/A   Mostly Cloudy
1:54 PM 63.0 °F - 37.9 °F 40% 29.56 in 10.0 mi West 20.7 mph 34.5 mph N/A   Mostly Cloudy
2:54 PM 63.0 °F - 37.9 °F 40% 29.56 in 10.0 mi WNW 18.4 mph 25.3 mph N/A   Mostly Cloudy
3:54 PM 63.0 °F - 37.9 °F 40% 29.58 in 10.0 mi NW 12.7 mph 26.5 mph N/A   Mostly Cloudy
4:54 PM 62.1 °F - 37.9 °F 41% 29.59 in 10.0 mi NW 11.5 mph 21.9 mph N/A   Mostly Cloudy
5:54 PM 61.0 °F - 37.0 °F 41% 29.61 in 10.0 mi WNW 15.0 mph 24.2 mph N/A   Mostly Cloudy
6:54 PM 59.0 °F - 34.0 °F 39% 29.63 in 10.0 mi WNW 15.0 mph 24.2 mph N/A   Mostly Cloudy
7:54 PM 57.0 °F - 34.0 °F 42% 29.65 in 10.0 mi NW 5.8 mph - N/A   Scattered Clouds
8:54 PM 52.0 °F - 35.1 °F 53% 29.67 in 10.0 mi Calm Calm - N/A   Partly Cloudy
9:54 PM 51.1 °F - 35.1 °F 54% 29.68 in 10.0 mi Calm Calm - N/A   Partly Cloudy
10:54 PM 48.0 °F - 35.1 °F 61% 29.68 in 10.0 mi Calm Calm - N/A   Partly Cloudy
11:54 PM 44.1 °F 42.5 °F 36.0 °F 73% 29.69 in 10.0 mi West 3.5 mph - N/A   Scattered Clouds